Location: Cosy Dell
(34.2789°N, 117.4537°W)
Time: 20:41:02
(UTC+00:00)

Cosmos 1241 Rocket - Pass Details

Date: 14 July 2020
Orbit: 935 x 1013 km, 65.8° (Epoch: 13 August)

Event Time Altitude Azimuth Distance (km) Brightness Sun altitude
Rises 10:10:35 0° 331° (NNW) 3,697 7.9 -25.6°
Reaches altitude 10° 10:13:09 10° 330° (NNW) 2,756 7.1 -25.3°
Maximum altitude 10:19:38 80° 245° (WSW) 1,019 4.4 -24.5°
Enters shadow 10:23:08 30° 161° (SSE) 1,726 5.5 -24.1°
